SCP
0 0 0 0 0 0 0 0 0 0 0 0 0 0 0 0 0 0 0 0 0 0 0 0 0 0 0 0 0 0 0 0 0 0 0 0 0 0 0 0 0 0 0
0 0 0 0 0 0 0 0 0 0 0 0 0 0 0 0 0 0 0 0 0 0 0 0 0 0 0 0 0 0 0 0 0 0 0 0 0 0 0 0 0 0 0
0 0 0 0 0 0 0 0 0 0 0 0 0 0 0 0 0 0 0 0 0 0 0 0 0 0 0 0 0 0 0 0 0 0 0 0 0 0 0 0 0 0 0
0 0 0 0 0 0 0 0 0 0 0 0 0 0 0 0 0 0 0 0 0 0 0 0 0 0 0 0 0 0 0 0 0 0 0 0 0 0 0 0 0 0 0
0 0 0 0 0 0 0 0 0 0 0 0 0 0 0 0 0 0 0 0 0 0 0 0 0 0 0 0 0 0 0 0 0 0 0 0 0 0 0 0 0 0 0
-0 0 0 0 0 0 0 0 0 0 0 0 0 0 0 0 0 0 0 0 0 0 0 0 0 0 0 0 0 0 0 0 0 0 0 0 0 0 0 0 0 0 0
-0 0 0 0 0 0 0 0 0 0 0 0 0 0 0 0 0 0 0 0 0 0 0 0 0 0 0 0 0 0 0 0 0 0 0 0 0 0 0 0 0 0 0
0 0 0 0 0 0 0 0 0 0 0 0 0 0 0 0 0 0 0 0 0 0 0 0 0 0 0 0 0 0 0 0 0 0 0 0 0 0 0 0 0 0 0
0 0 0 0 0 0 0 0 0 0 0 0 0 0 0 0 0 0 0 0 0 0 0 0 0 0 0 0 0 0 0 0 0 0 0 0 0 0 0 0 0 0 0
0 0 0 0 0 0 0 0 0 0 0 0 0 0 0 0 0 0 0 0 0 0 0 0 0 0 0 0 0 0 0 0 0 0 0 0 0 0 0 0 0 0 0
0 0 0 0 0 0 0 0 0 0 0 0 0 0 0 0 0 0 0 0 0 0 0 0 0 0 0 0 0 0 0 0 0 0 0 0 0 0 0 0 0 0 0
0 0 0 0 0 0 0 0 0 0 0 0 0 0 0 0 0 0 0 0 0 0 0 0 0 0 0 0 0 0 0 0 0 0 0 0 0 0 0 0 0 0 0
0 0 0 0 0 0 0 0 0 0 0 0 0 0 0 0 0 0 0 0 0 0 0 0 0 0 0 0 0 0 0 0 0 0 0 0 0 0 0 0 0 0 0
0 0 0 0 0 0 0 0 0 0 0 0 0 0 0 0 0 0 0 0 0 0 0 0 0 0 0 0 0 0 0 0 0 0 0 0 0 0 0 0 0 0 0
0 0 0 0 0 0 0 0 0 0 0 0 0 0 0 0 0 0 0 0 0 0 0 0 0 0 0 0 0 0 0 0 0 0 0 0 0 0 0 0 0 0 0
0 0 0 0 0 0 0 0 0 0 0 0 0 0 0 0 0 0 0 0 0 0 0 0 0 0 0 0 0 0 0 0 0 0 0 0 0 0 0 0 0 0 0
0 0 0 0 0 0 0 0 0 0 0 0 0 0 0 0 0 0 0 0 0 0 0 0 0 0 0 0 0 0 0 0 0 0 0 0 0 0 0 0 0 0 0
0 0 0 0 0 0 0 0 0 0 0 0 0 0 0 0 0 0 0 0 0 0 0 0 0 0 0 0 0 0 0 0 0 0 0 0 0 0 0 0 0 0 0
0 0 0 0 0 0 0 0 0 0 0 0 0 0 0 0 0 0 0 0 0 0 0 0 0 0 0 0 0 0 0 0 0 0 0 0 0 0 0 0 0 0 0
0 0 0 0 0 0 0 0 0 0 0 0 0 0 0 0 0 0 0 0 0 0 0 0 0 0 0 0 0 0 0 0 0 0 0 0 0 0 0 0 0 0 0
0 0 0 0 0 0 0 0 0 0 0 0 0 0 0 0 0 0 0 0 0 0 0 0 0 0 0 0 -0 -0 0 0 0 0 0 0 0 0 0 0 0 0 0
0 0 0 0 0 0 0 0 0 0 0 0 0 0 0 0 0 0 0 0 0 0 0 0 0 0 -0 -0 -0 -0 0 0 0 0 0 0 0 0 0 0 0 0 0
0 0 0 0 0 0 0 0 0 0 0 0 0 0 0 0 0 0 0 0 0 0 0 0 0 0 -0 -0 -0 -0 0 0 0 0 0 0 0 0 0 0 0 0 0
0 0 0 0 0 0 0 -0 -0 -0 -0 0 0 0 0 0 0 0 0 0 0 0 0 0 0 0 -0 -0 -0 -0 0 0 0 0 0 0 0 0 0 0 0 0 0
0 0 0 0 0 0 0 0 0 0 -0 -0 0 0 0 0 0 0 0 0 0 0 0 0 0 0 0 0 0 0 0 0 0 0 0 0 0 -0 0 0 0 0 0
0 0 0 0 0 0 0 0 0 0 0 0 0 0 0 0 0 0 0 0 0 0 0 0 0 0 0 0 0 0 0 -0 -0 0 0 0 0 0 0 0 0 0 0
Wind_Speed
2 1 1 2 2 2 2 2 2 3 3 3 3 4 4 4 4 3 3 8 9 9 9 8 7 5 5 5 5 5 5 5 5 5 5 5 5 6 6 6 6 5 6
2 2 2 2 2 2 2 2 3 3 3 3 4 4 4 3 4 4 4 5 9 10 10 9 8 8 6 6 6 6 6 6 6 6 6 5 6 6 6 6 6 7 6
2 2 2 2 2 2 3 3 4 3 3 3 4 4 3 4 4 4 4 4 4 9 11 10 10 9 8 8 7 7 7 6 6 6 6 6 6 6 6 6 6 7 7
3 2 2 2 2 2 2 3 3 3 3 3 3 3 3 3 4 4 4 4 4 4 7 11 11 11 11 10 9 7 7 7 6 6 6 6 6 6 6 6 7 7 7
3 3 2 2 2 3 3 3 3 3 3 3 3 3 4 4 4 4 5 5 4 4 4 7 11 12 12 11 10 8 7 7 7 7 7 6 6 6 6 6 6 7 8
3 3 3 3 3 3 3 3 3 3 3 2 4 4 4 4 4 4 4 4 4 5 5 5 5 7 11 12 11 9 8 7 7 7 7 7 7 7 7 7 7 7 7
3 3 3 3 3 3 3 3 3 4 3 2 3 3 3 4 4 4 3 4 5 5 5 5 4 4 4 10 11 10 9 8 7 7 7 7 7 7 7 7 7 8 8
3 3 3 3 3 3 3 3 3 2 2 2 2 2 2 4 4 4 4 4 4 4 4 5 4 4 4 3 6 10 10 9 8 7 7 7 7 7 7 7 8 8 8
3 3 3 3 3 3 2 2 2 3 2 2 2 2 2 1 1 3 4 4 4 4 3 3 4 4 4 4 4 7 9 9 9 8 8 7 7 7 7 7 8 8 8
2 2 3 3 3 2 2 2 2 2 3 1 1 2 1 3 2 1 3 3 4 4 4 3 4 4 4 3 4 7 9 9 9 8 8 8 7 7 7 7 7 7 7
2 2 2 3 3 2 2 2 2 2 2 2 1 1 2 2 2 2 0 2 3 3 3 3 3 3 4 4 2 5 8 8 8 8 8 9 8 7 7 7 7 7 7
2 2 2 2 2 2 2 2 2 3 2 2 2 1 2 1 1 2 1 0 1 2 3 3 3 3 3 3 4 7 8 8 8 8 8 9 8 8 8 8 7 7 7
1 1 1 2 2 2 3 3 3 2 2 2 2 1 1 1 1 2 2 1 1 2 2 2 3 3 3 3 3 6 7 8 8 8 8 8 8 8 8 8 8 8 9
1 1 2 2 3 3 3 3 3 2 2 3 3 2 1 1 1 2 2 2 1 2 2 3 2 3 3 3 4 6 5 8 8 8 8 8 7 8 8 8 9 9 9
1 2 2 3 3 3 3 3 3 2 3 3 2 2 2 1 1 1 1 2 3 1 2 2 2 3 3 3 4 4 4 7 9 9 8 8 7 7 8 8 8 9 9
1 2 2 3 3 3 3 3 3 2 3 3 2 3 3 2 2 2 1 1 1 2 1 1 2 2 2 3 5 4 4 8 9 9 9 9 8 8 8 8 8 8 9
2 2 2 3 3 3 3 3 3 3 4 3 3 3 3 2 2 2 2 2 2 2 2 1 1 2 2 3 3 4 3 3 4 8 8 9 8 8 8 8 8 8 8
2 2 3 3 3 3 3 3 3 3 3 3 2 3 2 2 3 2 2 2 1 1 2 0 1 2 2 2 2 3 4 3 3 6 8 7 7 7 7 7 7 7 7
3 2 3 3 3 2 2 2 3 3 3 2 2 2 2 2 2 1 2 2 1 2 2 1 1 1 2 2 3 3 3 3 4 5 7 7 7 7 7 7 7 7 7
3 3 2 2 3 3 2 2 3 3 3 2 2 2 2 2 2 1 2 1 2 2 2 2 1 1 1 2 2 2 3 3 3 4 5 5 7 8 7 7 6 6 6
3 3 3 2 2 2 2 3 3 3 3 2 2 2 2 2 2 2 2 2 2 2 2 1 1 1 1 2 1 1 2 2 3 3 3 3 4 3 4 6 6 5 5
3 3 3 3 2 1 3 5 4 3 3 3 2 2 2 2 3 4 4 4 3 3 2 1 0 0 1 1 1 1 1 2 3 2 2 3 3 3 3 3 5 6 5
4 3 3 2 2 2 4 5 6 4 3 2 2 1 1 2 3 3 4 6 5 4 3 3 2 1 1 2 1 1 1 1 2 3 2 3 3 3 3 4 7 6 6
4 3 3 2 2 2 5 6 6 4 3 2 2 2 2 1 2 3 3 3 3 3 2 1 1 1 1 1 2 1 1 1 2 2 1 2 3 3 4 4 7 7 6
3 3 3 3 3 2 4 6 7 4 3 2 1 2 2 1 2 4 4 3 2 3 3 4 3 3 3 3 2 2 2 2 2 3 1 1 2 4 4 3 4 7 8
4 4 3 2 2 2 4 6 7 3 3 1 1 1 1 2 3 4 3 3 1 1 2 3 4 5 4 3 3 1 1 0 1 2 2 1 2 3 3 3 3 4 4
Wind_Direction
88 64 52 48 41 45 52 51 55 59 63 61 61 65 56 45 38 27 12 32 36 33 30 34 44 53 56 59 56 54 49 49 51 60 55 50 46 39 37 37 33 31 29
107 88 70 59 50 53 60 68 66 66 63 62 58 58 52 44 41 34 24 23 31 33 31 37 43 48 47 47 50 53 54 54 55 58 51 44 41 39 35 33 32 30 29
104 101 90 68 54 67 74 72 67 63 66 64 54 51 48 41 40 36 30 27 22 32 35 41 42 45 45 44 47 50 52 51 51 52 45 40 38 40 37 33 30 28 24
106 102 96 80 74 78 78 79 71 70 61 58 51 43 42 39 37 38 38 35 30 30 30 39 43 42 41 40 41 45 48 49 47 47 42 36 35 38 36 34 32 29 25
97 99 94 85 82 77 71 82 69 81 78 66 63 48 38 37 32 41 40 39 36 36 30 32 39 41 39 37 37 39 46 49 46 42 41 42 40 37 33 33 32 30 28
89 93 89 83 84 81 69 73 79 68 73 72 69 55 42 36 36 36 32 35 35 37 35 32 29 30 35 35 32 35 38 43 44 40 39 38 37 35 35 35 32 29 27
90 90 92 84 83 90 96 99 93 79 56 50 70 43 25 36 42 32 26 32 33 33 37 35 31 26 19 26 24 29 31 34 39 43 44 42 42 39 37 35 33 31 27
91 100 97 94 91 97 91 90 99 95 54 39 93 83 29 7 12 22 26 34 28 28 33 32 29 26 20 13 12 21 24 25 31 39 45 44 42 39 36 34 33 34 31
83 92 99 100 99 105 111 107 113 114 110 41 57 123 128 186 335 357 19 29 26 27 18 19 25 21 19 12 3 12 24 23 25 31 39 40 38 36 34 36 35 33 29
78 87 97 97 97 95 106 116 106 111 121 106 47 52 111 151 138 9 351 5 20 24 14 15 13 10 9 4 9 20 27 25 27 28 31 33 35 36 37 36 33 32 28
58 76 89 94 95 93 98 88 89 96 111 130 128 104 77 63 90 130 360 338 2 7 13 13 7 358 356 355 357 26 30 30 33 32 31 31 33 34 34 33 31 28 24
44 59 79 84 94 97 97 96 98 98 97 104 111 121 136 134 143 129 143 315 343 336 358 7 5 353 351 1 17 29 32 33 34 33 34 31 31 30 30 29 25 24 22
62 62 93 98 93 96 100 99 96 90 95 101 108 112 125 145 147 137 129 129 10 333 346 352 351 350 4 17 21 29 33 32 33 33 34 31 31 31 29 27 25 24 24
168 143 116 108 100 98 96 94 89 85 86 91 87 90 87 68 106 135 145 139 76 357 2 339 337 352 4 17 26 26 28 33 31 31 31 30 32 33 34 31 28 25 24
137 120 113 109 104 100 98 98 87 82 87 83 81 77 75 55 65 77 116 141 140 113 327 329 335 340 358 20 20 28 23 31 30 28 26 30 36 40 39 36 32 30 30
114 116 108 107 103 97 98 98 92 87 88 78 86 82 66 52 59 62 85 88 114 143 179 307 308 324 350 22 30 27 24 24 25 25 31 37 42 46 42 38 34 35 34
136 130 124 115 110 103 101 102 99 97 94 81 72 78 63 53 60 51 64 73 76 107 132 313 332 349 12 16 8 10 15 13 8 19 29 39 44 44 40 35 36 33 31
136 132 126 119 116 113 111 116 119 108 106 99 84 79 63 65 55 47 63 64 65 80 128 130 346 359 5 1 3 8 9 12 3 11 23 30 33 37 34 33 32 29 28
129 123 119 120 117 120 118 119 122 116 112 108 102 100 91 89 70 55 64 67 64 65 76 112 2 354 353 7 17 10 9 360 360 13 19 22 25 29 27 26 24 23 23
131 131 123 122 124 118 117 120 119 111 102 92 87 92 96 106 116 106 85 82 85 77 72 81 52 2 353 346 20 9 357 0 356 2 9 16 19 17 11 10 10 13 14
132 128 120 111 115 121 136 136 130 123 115 97 77 71 84 104 107 115 112 118 107 95 84 74 45 12 353 353 344 333 345 336 341 359 356 358 356 354 353 354 358 358 355
123 123 131 133 130 144 150 147 135 127 122 114 95 60 52 55 63 74 88 101 119 128 139 125 100 312 292 293 313 332 339 352 331 344 356 333 346 336 332 334 345 347 346
135 134 139 138 139 150 148 140 136 123 116 116 113 90 63 64 68 75 71 66 60 69 107 147 147 213 238 241 225 321 321 303 277 302 338 318 333 325 321 338 343 349 355
142 144 147 152 140 150 148 140 131 112 101 97 101 113 108 74 89 107 94 70 47 30 46 87 157 221 235 229 201 208 220 298 301 316 352 304 319 316 323 327 340 349 350
144 145 147 150 148 160 147 140 129 114 106 95 81 84 105 108 104 109 101 85 43 8 32 51 50 46 41 46 76 73 46 22 329 317 351 309 303 313 311 313 332 347 346
150 143 136 148 155 160 153 148 140 128 124 113 74 51 77 119 106 112 114 114 80 338 15 24 26 22 22 26 41 72 138 103 311 303 316 319 308 330 318 306 318 331 335